Kalamazoo, MI

11:37 PM EDT on June 26, 2017 (GMT -0400)
Kalamazoo-Battle Creek International

Weather History for KAZO - March, 2013

Change the Weather History Date:

Friday, March 15, 2013

  Actual Average Record
Temperature  
Mean Temperature 37 °F 36 °F  
Max Temperature 43 °F 45 °F 79 °F (2012)
Min Temperature 31 °F 27 °F 10 °F (1970)
Degree Days  
Heating Degree Days 28 29  
Month to date heating degree days 502 476  
Since 1 July heating degree days 5052 5249  
Cooling Degree Days 0 0  
Month to date cooling degree days 0 0  
Year to date cooling degree days 0 0  
Moisture  
Dew Point 31 °F    
Average Humidity 80    
Maximum Humidity 92    
Minimum Humidity 67    
Precipitation  
Precipitation 0.09 in 0.07 in 0.71 in (1959)
Month to date precipitation 0.50 1.08  
Year to date precipitation 5.16 4.32  
Sea Level Pressure  
Sea Level Pressure 29.95 in    
Wind  
Wind Speed 7 mph (West)    
Max Wind Speed 12 mph    
Max Gust Speed -    
Visibility 5 miles    
Events Rain    
T = Trace of Precipitation, MM = Missing Value Source: NWS Daily Summary

Daily Weather History Graph

Daily Weather History Graph

Search for Another Location

Airport or City:

Trip Planner

Search our weather history database for the weather conditions in past years. The results will help you decide how hot, cold, wet, or windy it might be!

Date:

Astronomy

Mar. 15, 2013 Rise Set
Actual Time 7:53 AM EDT 7:49 PM EDT
Civil Twilight 7:25 AM EDT 8:16 PM EDT
Nautical Twilight 6:53 AM EDT 8:49 PM EDT
Astronomical Twilight 6:20 AM EDT 9:22 PM EDT
Moon 9:38 AM EDT (3/15) No Moon Set
Length of Visible Light 12h 51m
Length of Day
11h 55m
Waxing Crescent, 15% of the Moon is Illuminated
Mar 15
Waxing Crescent
Mar 19
First Quarter
Mar 27
Full
Apr 3
Last Quarter
Apr 10
New

Hourly Weather History & Observations

Time (EDT) Temp. Windchill Dew Point Humidity Pressure Visibility Wind Dir Wind Speed Gust Speed Precip Events Conditions
12:40 AM 32.0 °F 25.6 °F 24.8 °F 75% 30.09 in 10.0 mi WSW 6.9 mph - N/A   Overcast
12:53 AM 32.0 °F 25.6 °F 24.1 °F 73% 30.13 in 10.0 mi WSW 6.9 mph - N/A   Overcast
1:50 AM 32.0 °F 25.6 °F 26.6 °F 80% 30.07 in 10.0 mi WSW 6.9 mph - N/A   Overcast
1:53 AM 32.0 °F 25.6 °F 26.1 °F 79% 30.09 in 10.0 mi WSW 6.9 mph - N/A   Overcast
2:53 AM 32.0 °F 23.0 °F 28.0 °F 85% 30.06 in 7.0 mi WSW 11.5 mph - N/A   Mostly Cloudy
3:53 AM 32.0 °F 23.6 °F 28.9 °F 88% 30.05 in 6.0 mi WSW 10.4 mph - N/A   Mostly Cloudy
4:15 AM 32.0 °F 25.6 °F 28.4 °F 87% 30.01 in 6.0 mi WSW 6.9 mph - N/A   Scattered Clouds
5:53 AM 30.9 °F 24.3 °F 28.0 °F 89% 29.99 in 5.0 mi SW 6.9 mph - N/A   Clear
6:53 AM 30.9 °F 24.3 °F 28.0 °F 89% 29.98 in 5.0 mi WSW 6.9 mph - N/A   Clear
7:53 AM 32.0 °F 24.8 °F 28.0 °F 85% 29.97 in 5.0 mi WSW 8.1 mph - N/A   Clear
8:53 AM 32.0 °F 24.2 °F 28.9 °F 88% 29.96 in 4.0 mi WSW 9.2 mph - N/A   Clear
9:53 AM 34.0 °F 26.0 °F 30.0 °F 85% 29.96 in 4.0 mi WSW 10.4 mph - N/A   Partly Cloudy
10:12 AM 35.6 °F 29.9 °F 30.2 °F 81% 29.92 in 5.0 mi West 6.9 mph - N/A   Mostly Cloudy
10:53 AM 36.0 °F 29.0 °F 30.9 °F 82% 29.95 in 4.0 mi WNW 9.2 mph - N/A   Haze
11:53 AM 37.9 °F 31.5 °F 30.9 °F 76% 29.94 in 5.0 mi West 9.2 mph - N/A   Haze
12:09 PM 37.4 °F 32.1 °F 32.0 °F 81% 29.91 in 5.0 mi West 6.9 mph - N/A   Haze
12:53 PM 39.0 °F 34.8 °F 32.0 °F 76% 29.93 in 5.0 mi West 5.8 mph - N/A   Haze
1:53 PM 41.0 °F 38.0 °F 32.0 °F 70% 29.92 in 5.0 mi Variable 4.6 mph - N/A   Haze
2:53 PM 42.1 °F 38.4 °F 32.0 °F 67% 29.91 in 6.0 mi WSW 5.8 mph - N/A   Haze
3:53 PM 42.1 °F 39.2 °F 32.0 °F 67% 29.89 in 6.0 mi WSW 4.6 mph - N/A   Haze
4:53 PM 42.1 °F 38.4 °F 35.1 °F 76% 29.88 in 4.0 mi West 5.8 mph - 0.00 in Rain Light Rain
5:53 PM 39.0 °F 34.8 °F 35.1 °F 86% 29.88 in 3.0 mi NW 5.8 mph - 0.00 in Rain Light Rain
6:53 PM 37.9 °F 34.4 °F 35.1 °F 89% 29.88 in 1.8 mi North 4.6 mph - 0.02 in Rain Light Rain
7:53 PM 36.0 °F 33.3 °F 34.0 °F 93% 29.88 in 2.5 mi NNE 3.5 mph - 0.04 in Rain Light Rain
8:53 PM 35.1 °F - 34.0 °F 96% 29.88 in 2.5 mi Calm Calm - 0.01 in Rain Light Rain
9:00 PM 35.6 °F - 33.8 °F 93% 29.84 in 2.5 mi Calm Calm - 0.01 in Rain Light Rain
9:53 PM 36.0 °F 32.1 °F 34.0 °F 93% 29.86 in 2.0 mi East 4.6 mph - 0.01 in   Overcast
10:53 PM 36.0 °F 32.1 °F 34.0 °F 93% 29.84 in 2.0 mi East 4.6 mph - N/A   Overcast
11:53 PM 36.0 °F - 34.0 °F 93% 29.85 in 1.8 mi Calm Calm - 0.01 in Rain Light Rain